Regional Weather Roundup
Issued by NWS

Home | Current Version | Previous Version | Graphics & Text | Print | Product List | Glossary On
Versions: 1 2 3 4 5 6 7 8 9 10 11 12 13 14 15 16 17 18 19 20 21 22 23 24 25 26 27 28 29 30 31 32 33 34 35 36 37 38 39 40 41 42 43 44 45 46 47 48 49 50
000
ASUS45 KSLC 260510
RWRUT

UTAH REGIONAL WEATHER ROUNDUP
NATIONAL WEATHER SERVICE SALT LAKE CITY UT
1000 PM MST WED FEB 25 2015

UTZ001>011-023>025-260600-

NORTHERN UTAH

CITY           SKY/WX    TMP DP  RH WIND       PRES   REMARKS
BRIGHAM CITY   CLEAR     35  18  49 CALM      30.10R
HILL AFB       CLEAR     36  15  42 S3        30.07R
LOGAN          CLEAR     31  19  61 CALM      30.09R
OGDEN          CLEAR     33  19  56 N8        30.07R WCI  26
PROVO AIRPORT  PTCLDY    41  23  48 CALM      30.08R
SALT LAKE CITY PTCLDY    40  21  46 CALM      30.07R
VERNAL         PTCLDY    29  17  61 S14       30.08R WCI  18
WENDOVER       PTCLDY    41  16  36 W9        30.09R
HEBER CITY     CLEAR     32  18  55 E7        30.07R WCI  26
WEST JORDAN    CLEAR     36  19  51 NE3       30.08R

$$

UTZ012>022-026-027-260600-

SOUTHERN/CENTRAL UTAH

CITY           SKY/WX    TMP DP  RH WIND       PRES   REMARKS
BLANDING       CLEAR     31  22  68 N7        30.07R WCI  24
BRYCE CANYON   CLEAR     26  11  52 VRB3      30.07S
CEDAR CITY     PTCLDY    29  22  75 N5        30.05F WCI  24
DELTA          MOCLDY    36  14  41 N3        30.08S
HANKSVILLE     CLEAR     45  14  29 CALM      30.04S
MILFORD        PTCLDY    34  15  46 NW3       30.07R
MOAB/CYNLANDS  CLEAR     40  27  59 S10       30.02R WCI  33
PRICE          CLEAR     36  11  35 SW3       30.02S
ST GEORGE      CLEAR     48  36  61 S5        30.03S
KANAB          PTCLDY    36  28  75 NE6       30.10R WCI  31

$$

REGIONAL REPORTS     COLORADO/ARIZONA

CITY           SKY/WX    TMP DP  RH WIND       PRES   REMARKS
CRAIG, CO      PTCLDY    23  14  68 CALM      30.08R
GRAND JUNCTION CLOUDY    34  31  88 SE3       30.06R
RIFLE          MOCLDY    32  20  61 NW12      30.05R WCI  23
MONTROSE       LGT SNOW  32  31  96 W10       30.06R VSB 1   WCI  24
CORTEZ         MOCLDY    34  28  79 E6        30.01R WCI  29
PAGE, AZ       CLOUDY    48  23  37 CALM      30.02S
GRAND CANYON   CLOUDY    32  26  78 CALM      30.10S
KINGMAN        CLOUDY    47  30  51 SE8       30.02F
FLAGSTAFF      CLOUDY    34  21  59 N3        30.09R

$$

REGIONAL REPORTS    NEVADA/IDAHO/WYOMING

CITY           SKY/WX    TMP DP  RH WIND       PRES   REMARKS
LAS VEGAS, NV  CLEAR     59  29  31 SW8       29.95R
ELY            CLEAR     26   5  40 SE6       30.10F WCI  19
ELKO           CLOUDY    38  15  39 CALM      30.11R
POCATELLO, ID  CLEAR     30  14  51 E5        30.08F WCI  25
BURLEY         MOCLDY    38  19  46 W15G23    30.05F WCI  29
EVANSTON, WY   CLOUDY    28  15  58 CALM      30.08R
ROCK SPRINGS   FLURRIES  20  17  88 E13       30.10R WCI   7

$$


USA.gov is the U.S. government's official web portal to all federal, state and local government web resources and services.